Time,TemperatureF,DewpointF,PressureIn,WindDirection,WindDirectionDegrees,WindSpeedMPH,WindSpeedGustMPH,Humidity,HourlyPrecipIn,Conditions,Clouds,dailyrainin,SoftwareType,DateUTC
2013-02-10 00:01:00,39.0,19.0,30.44,SW,231,0.0,0.0,45,0.00,,,0.00,,2013-02-10 05:01:00,
2013-02-10 00:11:00,39.0,19.0,30.44,SW,231,0.0,0.0,45,0.00,,,0.00,,2013-02-10 05:11:00,
2013-02-10 00:23:00,39.0,19.0,30.44,SW,231,0.0,0.0,45,0.00,,,0.00,,2013-02-10 05:23:00,
2013-02-10 00:32:00,39.0,20.0,30.44,SW,231,0.0,0.0,47,0.00,,,0.00,,2013-02-10 05:32:00,
2013-02-10 00:42:00,39.0,20.0,30.44,SW,231,0.0,0.0,47,0.00,,,0.00,,2013-02-10 05:42:00,
2013-02-10 00:52:00,38.0,20.0,30.44,SW,231,0.0,0.0,48,0.00,,,0.00,,2013-02-10 05:52:00,
2013-02-10 01:02:00,38.0,21.0,30.45,SW,231,0.0,0.0,49,0.00,,,0.00,,2013-02-10 06:02:00,
2013-02-10 01:11:00,38.0,21.0,30.45,SW,231,0.0,0.0,49,0.00,,,0.00,,2013-02-10 06:11:00,
2013-02-10 01:21:00,38.0,20.0,30.44,SW,231,0.0,0.0,48,0.00,,,0.00,,2013-02-10 06:21:00,
2013-02-10 01:32:00,39.0,22.0,30.44,SW,231,0.0,1.0,51,0.00,,,0.00,,2013-02-10 06:32:00,
2013-02-10 01:42:00,39.0,22.0,30.44,SW,231,0.0,1.0,51,0.00,,,0.00,,2013-02-10 06:42:00,
2013-02-10 01:51:00,39.0,22.0,30.44,SW,231,0.0,1.0,51,0.00,,,0.00,,2013-02-10 06:51:00,
2013-02-10 02:01:00,39.0,22.0,30.44,SW,231,0.0,0.0,51,0.00,,,0.00,,2013-02-10 07:01:00,
2013-02-10 02:11:00,39.0,22.0,30.44,SW,231,0.0,0.0,51,0.00,,,0.00,,2013-02-10 07:11:00,
2013-02-10 02:21:00,39.0,22.0,30.44,SW,231,0.0,0.0,50,0.00,,,0.00,,2013-02-10 07:21:00,
2013-02-10 02:32:00,39.0,22.0,30.44,SW,231,0.0,0.0,51,0.00,,,0.00,,2013-02-10 07:32:00,
2013-02-10 02:42:00,39.0,22.0,30.44,SW,231,0.0,0.0,51,0.00,,,0.00,,2013-02-10 07:42:00,
2013-02-10 02:51:00,39.0,22.0,30.45,SW,231,0.0,0.0,50,0.00,,,0.00,,2013-02-10 07:51:00,
2013-02-10 03:01:00,39.0,22.0,30.44,SW,231,0.0,2.0,51,0.00,,,0.00,,2013-02-10 08:01:00,
2013-02-10 03:11:00,39.0,22.0,30.44,SW,231,0.0,2.0,51,0.00,,,0.00,,2013-02-10 08:11:00,
2013-02-10 03:21:00,39.0,22.0,30.44,SW,231,0.0,0.0,50,0.00,,,0.00,,2013-02-10 08:21:00,
2013-02-10 03:32:00,39.0,21.0,30.44,SW,231,0.0,0.0,49,0.00,,,0.00,,2013-02-10 08:32:00,
2013-02-10 03:43:00,39.0,21.0,30.44,SW,231,0.0,0.0,49,0.00,,,0.00,,2013-02-10 08:43:00,
2013-02-10 03:52:00,39.0,22.0,30.43,SW,231,0.0,0.0,50,0.00,,,0.00,,2013-02-10 08:52:00,
2013-02-10 04:02:00,39.0,22.0,30.42,SW,231,1.0,3.0,50,0.00,,,0.00,,2013-02-10 09:02:00,
2013-02-10 04:11:00,39.0,22.0,30.42,SW,231,1.0,3.0,50,0.00,,,0.00,,2013-02-10 09:11:00,
2013-02-10 04:21:00,39.0,22.0,30.42,SW,231,1.0,3.0,50,0.00,,,0.00,,2013-02-10 09:21:00,
2013-02-10 04:32:00,39.0,21.0,30.42,SSW,202,0.0,2.0,49,0.00,,,0.00,,2013-02-10 09:32:00,
2013-02-10 04:42:00,39.0,21.0,30.42,SSW,202,0.0,2.0,49,0.00,,,0.00,,2013-02-10 09:42:00,
2013-02-10 04:52:00,39.0,20.0,30.43,SW,225,0.0,4.0,47,0.00,,,0.00,,2013-02-10 09:52:00,
2013-02-10 05:01:00,40.0,22.0,30.44,SW,225,0.0,2.0,48,0.00,,,0.00,,2013-02-10 10:01:00,
2013-02-10 05:11:00,40.0,22.0,30.44,SW,225,0.0,2.0,48,0.00,,,0.00,,2013-02-10 10:11:00,
2013-02-10 05:21:00,40.0,22.0,30.43,SSW,201,0.0,3.0,49,0.00,,,0.00,,2013-02-10 10:21:00,
2013-02-10 05:32:00,40.0,22.0,30.44,SSW,195,0.0,4.0,49,0.00,,,0.00,,2013-02-10 10:32:00,
2013-02-10 05:42:00,40.0,22.0,30.44,SSW,195,0.0,4.0,49,0.00,,,0.00,,2013-02-10 10:42:00,
2013-02-10 05:51:00,40.0,23.0,30.44,South,185,0.0,2.0,50,0.00,,,0.00,,2013-02-10 10:51:00,
2013-02-10 06:01:00,40.0,24.0,30.44,South,185,0.0,1.0,52,0.00,,,0.00,,2013-02-10 11:01:00,
2013-02-10 06:11:00,40.0,24.0,30.44,South,185,0.0,1.0,52,0.00,,,0.00,,2013-02-10 11:11:00,
2013-02-10 06:22:00,39.0,22.0,30.44,South,185,0.0,0.0,50,0.00,,,0.00,,2013-02-10 11:22:00,
2013-02-10 06:32:00,39.0,22.0,30.45,South,185,0.0,0.0,50,0.00,,,0.00,,2013-02-10 11:32:00,
2013-02-10 06:42:00,39.0,22.0,30.45,South,185,0.0,0.0,50,0.00,,,0.00,,2013-02-10 11:42:00,
2013-02-10 06:52:00,39.0,22.0,30.45,South,185,0.0,0.0,50,0.00,,,0.00,,2013-02-10 11:52:00,
2013-02-10 07:02:00,39.0,22.0,30.45,South,185,0.0,1.0,50,0.00,,,0.00,,2013-02-10 12:02:00,
2013-02-10 07:12:00,39.0,22.0,30.45,South,185,0.0,1.0,50,0.00,,,0.00,,2013-02-10 12:12:00,
2013-02-10 07:22:00,39.0,22.0,30.45,West,277,0.0,1.0,51,0.00,,,0.00,,2013-02-10 12:22:00,
2013-02-10 07:32:00,39.0,22.0,30.45,West,277,0.0,1.0,51,0.00,,,0.00,,2013-02-10 12:32:00,
2013-02-10 07:42:00,39.0,22.0,30.45,West,277,0.0,1.0,51,0.00,,,0.00,,2013-02-10 12:42:00,
2013-02-10 07:52:00,38.0,22.0,30.45,West,277,0.0,2.0,51,0.00,,,0.00,,2013-02-10 12:52:00,
2013-02-10 08:02:00,38.0,22.0,30.45,West,277,0.0,1.0,51,0.00,,,0.00,,2013-02-10 13:02:00,
2013-02-10 08:12:00,38.0,22.0,30.45,West,277,0.0,1.0,51,0.00,,,0.00,,2013-02-10 13:12:00,
2013-02-10 08:21:00,38.0,22.0,30.45,West,277,0.0,1.0,51,0.00,,,0.00,,2013-02-10 13:21:00,
2013-02-10 08:31:00,38.0,21.0,30.45,West,277,0.0,0.0,50,0.00,,,0.00,,2013-02-10 13:31:00,
2013-02-10 08:42:00,38.0,21.0,30.45,West,277,0.0,0.0,50,0.00,,,0.00,,2013-02-10 13:42:00,
2013-02-10 08:51:00,38.0,22.0,30.45,North,353,0.0,2.0,52,0.00,,,0.00,,2013-02-10 13:51:00,
2013-02-10 09:02:00,38.0,22.0,30.45,ENE,60,0.0,1.0,51,0.00,,,0.00,,2013-02-10 14:02:00,
2013-02-10 09:11:00,38.0,22.0,30.45,ENE,60,0.0,1.0,51,0.00,,,0.00,,2013-02-10 14:11:00,
2013-02-10 09:22:00,39.0,22.0,30.45,ENE,59,0.0,1.0,51,0.00,,,0.00,,2013-02-10 14:22:00,
2013-02-10 09:32:00,39.0,23.0,30.45,ENE,60,0.0,1.0,53,0.00,,,0.00,,2013-02-10 14:32:00,
2013-02-10 09:42:00,39.0,23.0,30.45,ENE,60,0.0,1.0,53,0.00,,,0.00,,2013-02-10 14:42:00,
2013-02-10 09:52:00,39.0,23.0,30.45,NNW,342,0.0,2.0,53,0.00,,,0.00,,2013-02-10 14:52:00,
2013-02-10 10:02:00,39.0,24.0,30.45,NNW,342,0.0,0.0,54,0.00,,,0.00,,2013-02-10 15:02:00,
2013-02-10 10:12:00,39.0,24.0,30.45,NNW,342,0.0,0.0,54,0.00,,,0.00,,2013-02-10 15:12:00,
2013-02-10 10:22:00,39.0,25.0,30.45,NE,48,0.0,0.0,58,0.00,,,0.00,,2013-02-10 15:22:00,
2013-02-10 10:32:00,40.0,26.0,30.45,NE,48,0.0,1.0,56,0.00,,,0.00,,2013-02-10 15:32:00,
2013-02-10 10:42:00,40.0,26.0,30.45,NE,48,0.0,1.0,56,0.00,,,0.00,,2013-02-10 15:42:00,
2013-02-10 10:52:00,41.0,25.0,30.45,NE,48,0.0,0.0,52,0.00,,,0.00,,2013-02-10 15:52:00,
2013-02-10 11:02:00,41.0,26.0,30.45,NE,48,0.0,1.0,54,0.00,,,0.00,,2013-02-10 16:02:00,
2013-02-10 11:12:00,42.0,27.0,30.44,NE,48,0.0,2.0,55,0.00,,,0.00,,2013-02-10 16:12:00,
2013-02-10 11:22:00,42.0,27.0,30.44,NE,48,0.0,2.0,55,0.00,,,0.00,,2013-02-10 16:22:00,
2013-02-10 11:32:00,43.0,27.0,30.44,ENE,68,0.0,3.0,52,0.00,,,0.00,,2013-02-10 16:32:00,
2013-02-10 11:42:00,45.0,27.0,30.43,NE,36,0.0,3.0,50,0.00,,,0.00,,2013-02-10 16:42:00,
2013-02-10 11:52:00,45.0,27.0,30.43,NE,36,0.0,3.0,50,0.00,,,0.00,,2013-02-10 16:52:00,
2013-02-10 12:02:00,46.0,26.0,30.41,East,84,0.0,2.0,46,0.00,,,0.00,,2013-02-10 17:02:00,
2013-02-10 12:12:00,46.0,26.0,30.41,East,84,0.0,2.0,46,0.00,,,0.00,,2013-02-10 17:12:00,
2013-02-10 12:22:00,47.0,25.0,30.41,WNW,302,0.0,10.0,42,0.00,,,0.00,,2013-02-10 17:22:00,
2013-02-10 12:32:00,47.0,26.0,30.42,SW,229,0.0,5.0,43,0.00,,,0.00,,2013-02-10 17:32:00,
2013-02-10 12:42:00,48.0,24.0,30.40,SW,226,3.0,10.0,38,0.00,,,0.00,,2013-02-10 17:42:00,
2013-02-10 12:52:00,48.0,24.0,30.40,SW,226,3.0,10.0,38,0.00,,,0.00,,2013-02-10 17:52:00,
2013-02-10 13:02:00,48.0,22.0,30.38,North,357,1.0,8.0,36,0.00,,,0.00,,2013-02-10 18:02:00,
2013-02-10 13:12:00,48.0,23.0,30.37,SE,130,1.0,6.0,37,0.00,,,0.00,,2013-02-10 18:12:00,
2013-02-10 13:22:00,48.0,23.0,30.37,SE,130,1.0,6.0,37,0.00,,,0.00,,2013-02-10 18:22:00,
2013-02-10 13:32:00,49.0,19.0,30.34,South,176,2.0,10.0,30,0.00,,,0.00,,2013-02-10 18:32:00,
2013-02-10 13:42:00,49.0,19.0,30.34,South,176,2.0,10.0,30,0.00,,,0.00,,2013-02-10 18:42:00,
2013-02-10 13:52:00,50.0,18.0,30.32,SSE,148,1.0,7.0,28,0.00,,,0.00,,2013-02-10 18:52:00,
2013-02-10 14:02:00,50.0,16.0,30.32,NNW,333,2.0,9.0,26,0.00,,,0.00,,2013-02-10 19:02:00,
2013-02-10 14:12:00,50.0,19.0,30.34,ENE,71,1.0,13.0,29,0.00,,,0.00,,2013-02-10 19:12:00,
2013-02-10 14:22:00,50.0,19.0,30.34,ENE,71,1.0,13.0,29,0.00,,,0.00,,2013-02-10 19:22:00,
2013-02-10 14:32:00,50.0,24.0,30.34,South,176,1.0,9.0,36,0.00,,,0.00,,2013-02-10 19:32:00,
2013-02-10 14:42:00,50.0,28.0,30.32,West,266,4.0,14.0,43,0.00,,,0.00,,2013-02-10 19:42:00,
2013-02-10 14:52:00,50.0,28.0,30.32,West,266,4.0,14.0,43,0.00,,,0.00,,2013-02-10 19:52:00,
2013-02-10 15:02:00,49.0,29.0,30.30,WSW,258,6.0,15.0,46,0.00,,,0.00,,2013-02-10 20:02:00,
2013-02-10 15:11:00,49.0,29.0,30.30,WSW,258,6.0,15.0,46,0.00,,,0.00,,2013-02-10 20:11:00,
2013-02-10 15:22:00,49.0,31.0,30.29,WSW,239,0.0,9.0,50,0.00,,,0.00,,2013-02-10 20:22:00,
2013-02-10 15:32:00,49.0,31.0,30.30,West,261,1.0,5.0,50,0.00,,,0.00,,2013-02-10 20:32:00,
2013-02-10 15:42:00,48.0,31.0,30.29,West,281,0.0,5.0,52,0.00,,,0.00,,2013-02-10 20:42:00,
2013-02-10 15:52:00,48.0,31.0,30.29,West,281,0.0,5.0,52,0.00,,,0.00,,2013-02-10 20:52:00,
2013-02-10 16:02:00,48.0,33.0,30.30,SW,228,0.0,8.0,55,0.00,,,0.00,,2013-02-10 21:02:00,
2013-02-10 16:12:00,48.0,33.0,30.30,SW,228,0.0,8.0,55,0.00,,,0.00,,2013-02-10 21:12:00,
2013-02-10 16:22:00,47.0,32.0,30.31,South,179,2.0,6.0,55,0.00,,,0.00,,2013-02-10 21:22:00,
2013-02-10 16:32:00,46.0,34.0,30.29,SSW,202,1.0,10.0,62,0.00,,,0.00,,2013-02-10 21:32:00,
2013-02-10 16:42:00,45.0,36.0,30.29,South,185,2.0,6.0,71,0.01,,,0.01,,2013-02-10 21:42:00,
2013-02-10 16:52:00,45.0,36.0,30.29,South,185,2.0,6.0,71,0.01,,,0.01,,2013-02-10 21:52:00,
2013-02-10 17:02:00,44.0,37.0,30.29,SSW,198,0.0,6.0,75,0.02,,,0.02,,2013-02-10 22:02:00,
2013-02-10 17:12:00,43.0,38.0,30.29,SSW,198,0.0,0.0,81,0.05,,,0.05,,2013-02-10 22:12:00,
2013-02-10 17:22:00,43.0,38.0,30.29,SSW,198,0.0,0.0,81,0.05,,,0.05,,2013-02-10 22:22:00,
2013-02-10 17:32:00,42.0,38.0,30.29,SSW,198,0.0,2.0,86,0.09,,,0.09,,2013-02-10 22:32:00,
2013-02-10 17:42:00,42.0,39.0,30.30,ESE,119,0.0,0.0,89,0.12,,,0.13,,2013-02-10 22:42:00,
2013-02-10 17:52:00,42.0,39.0,30.30,ESE,119,0.0,0.0,89,0.12,,,0.13,,2013-02-10 22:52:00,
2013-02-10 18:02:00,41.0,39.0,30.29,ESE,119,0.0,3.0,91,0.16,,,0.18,,2013-02-10 23:02:00,
2013-02-10 18:12:00,41.0,39.0,30.29,ESE,119,0.0,3.0,91,0.16,,,0.18,,2013-02-10 23:12:00,
2013-02-10 18:22:00,40.0,38.0,30.30,SW,229,0.0,2.0,92,0.19,,,0.25,,2013-02-10 23:22:00,
2013-02-10 18:32:00,40.0,38.0,30.29,WNW,287,0.0,0.0,92,0.22,,,0.31,,2013-02-10 23:32:00,
2013-02-10 18:42:00,39.0,37.0,30.30,WNW,287,0.0,1.0,93,0.23,,,0.36,,2013-02-10 23:42:00,
2013-02-10 18:52:00,39.0,37.0,30.30,WNW,287,0.0,1.0,93,0.23,,,0.36,,2013-02-10 23:52:00,
2013-02-10 19:02:00,39.0,37.0,30.29,WNW,287,0.0,1.0,94,0.23,,,0.41,,2013-02-11 00:02:00,
2013-02-10 19:11:00,39.0,37.0,30.30,ENE,72,0.0,3.0,94,0.18,,,0.43,,2013-02-11 00:11:00,
2013-02-10 19:22:00,39.0,37.0,30.30,ENE,72,0.0,3.0,94,0.18,,,0.43,,2013-02-11 00:22:00,
2013-02-10 19:32:00,39.0,38.0,30.31,SSW,205,0.0,3.0,95,0.16,,,0.47,,2013-02-11 00:32:00,
2013-02-10 19:42:00,39.0,38.0,30.31,SSW,205,0.0,3.0,95,0.16,,,0.47,,2013-02-11 00:42:00,
2013-02-10 19:51:00,39.0,38.0,30.32,South,173,0.0,3.0,95,0.15,,,0.51,,2013-02-11 00:51:00,
2013-02-10 20:01:00,39.0,38.0,30.33,South,173,0.0,1.0,95,0.13,,,0.54,,2013-02-11 01:01:00,
2013-02-10 20:11:00,39.0,38.0,30.33,South,173,0.0,1.0,95,0.13,,,0.54,,2013-02-11 01:11:00,
2013-02-10 20:21:00,39.0,38.0,30.33,South,173,0.0,1.0,95,0.13,,,0.54,,2013-02-11 01:21:00,
2013-02-10 20:32:00,39.0,38.0,30.36,ESE,115,0.0,3.0,95,0.14,,,0.61,,2013-02-11 01:32:00,
2013-02-10 20:42:00,39.0,38.0,30.36,NE,49,0.0,8.0,95,0.15,,,0.66,,2013-02-11 01:42:00,
2013-02-10 20:52:00,39.0,38.0,30.36,NE,49,0.0,8.0,95,0.15,,,0.66,,2013-02-11 01:52:00,
2013-02-10 21:01:00,39.0,38.0,30.36,ESE,123,0.0,6.0,95,0.16,,,0.71,,2013-02-11 02:01:00,
2013-02-10 21:11:00,39.0,38.0,30.36,ESE,123,0.0,6.0,95,0.16,,,0.71,,2013-02-11 02:11:00,
2013-02-10 21:21:00,39.0,38.0,30.35,ESE,123,0.0,3.0,96,0.16,,,0.73,,2013-02-11 02:21:00,
2013-02-10 21:32:00,39.0,38.0,30.33,SE,140,0.0,3.0,96,0.16,,,0.77,,2013-02-11 02:32:00,
2013-02-10 21:42:00,40.0,39.0,30.33,ESE,121,0.0,5.0,96,0.13,,,0.80,,2013-02-11 02:42:00,
2013-02-10 21:52:00,40.0,39.0,30.33,ESE,121,0.0,5.0,96,0.13,,,0.80,,2013-02-11 02:52:00,
2013-02-10 22:02:00,40.0,39.0,30.30,North,360,1.0,3.0,96,0.14,,,0.85,,2013-02-11 03:02:00,
2013-02-10 22:11:00,40.0,39.0,30.30,North,360,1.0,3.0,96,0.14,,,0.85,,2013-02-11 03:11:00,
2013-02-10 22:21:00,41.0,40.0,30.28,SSW,199,5.0,13.0,97,0.16,,,0.89,,2013-02-11 03:21:00,
2013-02-10 22:32:00,44.0,43.0,30.28,NW,311,3.0,15.0,97,0.14,,,0.91,,2013-02-11 03:32:00,
2013-02-10 22:42:00,45.0,44.0,30.26,WSW,252,3.0,13.0,97,0.11,,,0.91,,2013-02-11 03:42:00,
2013-02-10 22:52:00,45.0,44.0,30.26,WSW,252,3.0,13.0,97,0.11,,,0.91,,2013-02-11 03:52:00,
2013-02-10 23:02:00,46.0,45.0,30.26,South,181,4.0,12.0,97,0.06,,,0.91,,2013-02-11 04:02:00,
2013-02-10 23:11:00,46.0,45.0,30.26,South,181,4.0,12.0,97,0.06,,,0.91,,2013-02-11 04:11:00,
2013-02-10 23:22:00,47.0,46.0,30.25,SSE,156,0.0,11.0,97,0.03,,,0.92,,2013-02-11 04:22:00,
2013-02-10 23:32:00,47.0,46.0,30.24,NW,324,1.0,9.0,95,0.02,,,0.93,,2013-02-11 04:32:00,
2013-02-10 23:42:00,47.0,46.0,30.24,NW,324,1.0,9.0,95,0.02,,,0.93,,2013-02-11 04:42:00,
2013-02-10 23:52:00,47.0,46.0,30.25,WSW,247,4.0,12.0,95,0.02,,,0.93,,2013-02-11 04:52:00,